TimeCDT,TemperatureF,Dew PointF,Humidity,Sea Level PressureIn,VisibilityMPH,Wind Direction,Wind SpeedMPH,Gust SpeedMPH,PrecipitationIn,Events,Conditions,WindDirDegrees,DateUTC
12:13 AM,55.4,52.0,88,29.55,10.0,Calm,Calm,-,N/A,,Clear,0,2013-06-01 05:13:00
12:33 AM,55.8,51.3,85,29.55,10.0,SSE,3.5,-,N/A,,Clear,150,2013-06-01 05:33:00
12:53 AM,54.9,51.1,87,29.55,10.0,Calm,Calm,-,N/A,,Clear,0,2013-06-01 05:53:00
1:13 AM,52.0,49.8,92,29.55,10.0,Calm,Calm,-,N/A,,Clear,0,2013-06-01 06:13:00
1:33 AM,52.5,50.9,94,29.55,10.0,Calm,Calm,-,N/A,,Clear,0,2013-06-01 06:33:00
1:53 AM,51.3,50.0,95,29.55,10.0,Calm,Calm,-,N/A,,Clear,0,2013-06-01 06:53:00
2:13 AM,51.3,50.2,96,29.55,10.0,Calm,Calm,-,N/A,,Clear,0,2013-06-01 07:13:00
2:33 AM,50.9,49.8,96,29.56,10.0,Calm,Calm,-,N/A,,Clear,0,2013-06-01 07:33:00
2:53 AM,50.0,48.7,95,29.55,10.0,Calm,Calm,-,N/A,,Clear,0,2013-06-01 07:53:00
3:13 AM,48.6,47.7,97,29.56,10.0,Calm,Calm,-,N/A,,Mostly Cloudy,0,2013-06-01 08:13:00
3:33 AM,49.5,48.7,97,29.55,10.0,Calm,Calm,-,N/A,,Mostly Cloudy,0,2013-06-01 08:33:00
3:53 AM,49.1,48.2,97,29.56,10.0,Calm,Calm,-,N/A,,Mostly Cloudy,0,2013-06-01 08:53:00
4:13 AM,49.6,48.9,97,29.56,10.0,Calm,Calm,-,N/A,,Mostly Cloudy,0,2013-06-01 09:13:00
4:33 AM,49.5,48.7,97,29.56,10.0,Calm,Calm,-,N/A,,Mostly Cloudy,0,2013-06-01 09:33:00
4:53 AM,49.5,48.7,97,29.57,10.0,Calm,Calm,-,N/A,,Scattered Clouds,0,2013-06-01 09:53:00
5:13 AM,48.2,47.5,97,29.58,10.0,Calm,Calm,-,N/A,,Clear,0,2013-06-01 10:13:00
5:32 AM,47.7,46.9,97,29.58,10.0,Calm,Calm,-,N/A,,Clear,0,2013-06-01 10:32:00
5:53 AM,47.8,47.3,98,29.59,7.0,Calm,Calm,-,N/A,,Clear,0,2013-06-01 10:53:00
6:13 AM,47.7,47.1,98,29.60,5.0,Calm,Calm,-,N/A,,Clear,0,2013-06-01 11:13:00
6:33 AM,49.1,48.6,98,29.60,10.0,Calm,Calm,-,N/A,,Clear,0,2013-06-01 11:33:00
6:53 AM,51.6,51.1,98,29.61,10.0,Calm,Calm,-,N/A,,Clear,0,2013-06-01 11:53:00
7:13 AM,52.7,52.0,97,29.62,10.0,Calm,Calm,-,N/A,,Clear,0,2013-06-01 12:13:00
7:33 AM,54.3,52.7,94,29.62,10.0,Calm,Calm,-,N/A,,Clear,0,2013-06-01 12:33:00
7:53 AM,57.0,54.1,90,29.63,10.0,Calm,Calm,-,N/A,,Clear,0,2013-06-01 12:53:00
8:13 AM,58.6,54.3,86,29.63,10.0,NNW,5.8,-,N/A,,Clear,340,2013-06-01 13:13:00
8:33 AM,59.9,54.7,83,29.63,10.0,North,4.6,-,N/A,,Clear,360,2013-06-01 13:33:00
8:52 AM,61.2,55.2,81,29.64,10.0,North,5.8,-,N/A,,Clear,360,2013-06-01 13:52:00
9:13 AM,62.6,55.6,78,29.64,10.0,North,10.4,18.4,N/A,,Scattered Clouds,10,2013-06-01 14:13:00
9:33 AM,63.1,56.3,78,29.65,10.0,North,6.9,-,N/A,,Scattered Clouds,10,2013-06-01 14:33:00
9:52 AM,65.5,56.5,73,29.66,10.0,North,8.1,-,N/A,,Clear,360,2013-06-01 14:52:00
10:13 AM,65.7,56.5,72,29.66,10.0,North,12.7,17.3,N/A,,Mostly Cloudy,350,2013-06-01 15:13:00
10:33 AM,66.0,56.1,70,29.67,10.0,North,12.7,-,N/A,,Overcast,360,2013-06-01 15:33:00
10:53 AM,65.3,54.5,68,29.68,10.0,North,13.8,19.6,N/A,,Scattered Clouds,10,2013-06-01 15:53:00
11:13 AM,65.3,55.4,70,29.69,10.0,North,10.4,16.1,N/A,,Mostly Cloudy,360,2013-06-01 16:13:00
11:33 AM,64.4,55.6,73,29.70,10.0,North,9.2,16.1,N/A,,Overcast,10,2013-06-01 16:33:00
11:53 AM,63.7,55.6,75,29.70,10.0,NNW,15.0,18.4,N/A,,Overcast,340,2013-06-01 16:53:00
12:13 PM,60.8,57.2,88,29.72,7.0,NNW,10.4,18.4,N/A,Rain,Light Rain,330,2013-06-01 17:13:00
12:33 PM,61.2,55.4,81,29.72,10.0,NNW,15.0,18.4,N/A,,Overcast,340,2013-06-01 17:33:00
12:53 PM,62.1,55.4,79,29.72,10.0,NNW,16.1,20.7,N/A,,Overcast,330,2013-06-01 17:53:00
1:12 PM,61.9,54.5,77,29.73,10.0,North,12.7,19.6,N/A,,Overcast,350,2013-06-01 18:12:00
1:33 PM,62.6,54.0,73,29.74,10.0,NNW,13.8,18.4,N/A,,Overcast,340,2013-06-01 18:33:00
1:53 PM,61.2,52.9,74,29.75,10.0,NNW,13.8,19.6,N/A,,Overcast,340,2013-06-01 18:53:00
2:13 PM,60.3,52.2,75,29.76,10.0,NNW,9.2,20.7,N/A,,Overcast,330,2013-06-01 19:13:00
2:33 PM,59.9,51.1,73,29.77,10.0,NNW,13.8,19.6,N/A,,Overcast,340,2013-06-01 19:33:00
2:53 PM,59.0,50.2,73,29.79,10.0,NNW,12.7,20.7,N/A,,Overcast,340,2013-06-01 19:53:00
3:13 PM,58.1,49.5,73,29.80,10.0,NNW,15.0,24.2,N/A,,Overcast,340,2013-06-01 20:13:00
3:33 PM,56.7,48.4,74,29.81,10.0,NNW,15.0,24.2,N/A,,Overcast,330,2013-06-01 20:33:00
3:53 PM,55.8,47.5,74,29.82,10.0,NNW,15.0,23.0,N/A,,Overcast,330,2013-06-01 20:53:00
4:13 PM,54.5,46.6,75,29.83,10.0,NNW,15.0,24.2,N/A,,Overcast,340,2013-06-01 21:13:00
4:33 PM,54.5,45.5,72,29.83,10.0,North,15.0,21.9,N/A,,Overcast,360,2013-06-01 21:33:00
4:53 PM,54.5,46.2,74,29.84,10.0,North,13.8,18.4,N/A,,Overcast,360,2013-06-01 21:53:00
5:13 PM,54.3,45.7,73,29.85,10.0,North,15.0,20.7,N/A,,Overcast,350,2013-06-01 22:13:00
5:33 PM,53.6,44.1,70,29.86,10.0,NNW,9.2,25.3,N/A,,Overcast,340,2013-06-01 22:33:00
5:53 PM,52.7,43.2,70,29.87,10.0,NNW,17.3,23.0,N/A,,Overcast,340,2013-06-01 22:53:00
6:13 PM,52.7,43.3,70,29.88,10.0,NNW,12.7,21.9,N/A,,Overcast,330,2013-06-01 23:13:00
6:33 PM,52.7,43.0,70,29.89,10.0,North,11.5,18.4,N/A,,Overcast,350,2013-06-01 23:33:00
6:52 PM,52.7,43.0,70,29.89,10.0,North,12.7,24.2,N/A,,Overcast,350,2013-06-01 23:52:00
7:13 PM,52.5,43.7,72,29.90,10.0,NNW,12.7,18.4,N/A,,Overcast,340,2013-06-02 00:13:00
7:33 PM,52.7,43.7,71,29.91,10.0,NNW,10.4,19.6,N/A,,Overcast,340,2013-06-02 00:33:00
7:53 PM,52.3,43.9,73,29.92,10.0,North,10.4,16.1,N/A,,Overcast,350,2013-06-02 00:53:00
8:13 PM,52.5,43.7,72,29.93,10.0,North,10.4,20.7,N/A,,Overcast,350,2013-06-02 01:13:00
8:33 PM,52.7,43.7,71,29.93,10.0,North,9.2,-,N/A,,Overcast,360,2013-06-02 01:33:00
8:53 PM,53.1,42.8,68,29.94,10.0,North,8.1,17.3,N/A,,Overcast,350,2013-06-02 01:53:00
9:13 PM,53.1,43.0,69,29.95,10.0,North,9.2,-,N/A,,Overcast,350,2013-06-02 02:13:00
9:33 PM,52.9,43.2,70,29.95,10.0,North,5.8,-,N/A,,Overcast,360,2013-06-02 02:33:00
9:53 PM,52.7,43.5,71,29.96,10.0,NNW,3.5,-,N/A,,Overcast,330,2013-06-02 02:53:00
10:13 PM,52.7,43.9,72,29.97,10.0,NNW,3.5,-,N/A,,Overcast,340,2013-06-02 03:13:00
10:33 PM,52.5,44.8,75,29.97,10.0,North,8.1,-,N/A,,Overcast,350,2013-06-02 03:33:00
10:53 PM,51.4,46.2,82,29.98,10.0,NNW,9.2,-,N/A,,Overcast,330,2013-06-02 03:53:00
11:13 PM,50.7,46.8,86,29.99,10.0,NNW,12.7,17.3,N/A,,Overcast,340,2013-06-02 04:13:00
11:33 PM,50.0,46.9,89,29.99,10.0,NNW,9.2,-,N/A,,Overcast,330,2013-06-02 04:33:00
11:53 PM,49.5,46.4,89,30.00,10.0,NNW,10.4,16.1,N/A,,Mostly Cloudy,340,2013-06-02 04:53:00